| time (UTC) | temp C | wind direction | speed KPH | gust KPH | rain 1hr cm | rain 24hr cm | rain mn cm | humidity % | barometer mb |
| 20260504004024 | 32 | 240 | 11.3 | 12.9 | 0.00 | 0.00 | 0.00 | 32 | 1003.3 |
| 20260504003032 | 32 | 258 | 9.7 | 16.1 | 0.00 | 0.00 | 0.00 | 31 | 1003.3 |
| 20260504002028 | 33 | 263 | 9.7 | 14.5 | 0.00 | 0.00 | 0.00 | 30 | 1003.3 |
| 20260504001049 | 32 | 311 | 8.0 | 12.9 | 0.00 | 0.00 | 0.00 | 29 | 1004.1 |
| 20260504000037 | 33 | 277 | 6.4 | 11.3 | 0.00 | 0.00 | 0.00 | 31 | 1004.3 |
| 20260503235026 | 32 | 308 | 6.4 | 9.7 | 0.00 | 0.00 | 0.00 | 30 | 1003.3 |
| 20260503234034 | 32 | 278 | 6.4 | 9.7 | 0.00 | 0.00 | 0.00 | 30 | 1004.1 |
| 20260503233023 | 33 | 237 | 6.4 | 11.3 | 0.00 | 0.00 | 0.00 | 30 | 1004.3 |
| 20260503232144 | 33 | 287 | 8.0 | 12.9 | 0.00 | 0.00 | 0.00 | 30 | 1004.3 |
| 20260503231021 | 32 | 257 | 6.4 | 12.9 | 0.00 | 0.00 | 0.00 | 31 | 1004.3 |
| 20260503230028 | 32 | 267 | 8.0 | 14.5 | 0.00 | 0.00 | 0.00 | 31 | 1004.3 |
| 20260503225037 | 32 | 264 | 6.4 | 9.7 | 0.00 | 0.00 | 0.00 | 34 | 1004.3 |
| 20260503224025 | 32 | 282 | 6.4 | 11.3 | 0.00 | 0.00 | 0.00 | 33 | 1005.1 |
| 20260503223034 | 33 | 214 | 8.0 | 11.3 | 0.00 | 0.00 | 0.00 | 35 | 1005.3 |
| 20260503222025 | 32 | 282 | 4.8 | 9.7 | 0.00 | 0.00 | 0.00 | 37 | 1005.3 |
| 20260503221031 | 32 | 274 | 8.0 | 9.7 | 0.00 | 0.00 | 0.00 | 37 | 1005.3 |
| 20260503220039 | 32 | 265 | 8.0 | 12.9 | 0.00 | 0.00 | 0.00 | 38 | 1005.3 |
| 20260503215028 | 31 | 301 | 6.4 | 9.7 | 0.00 | 0.00 | 0.00 | 40 | 1005.3 |
| 20260503214036 | 31 | 260 | 8.0 | 11.3 | 0.00 | 0.00 | 0.00 | 40 | 1006.1 |
| 20260503213025 | 31 | 257 | 6.4 | 9.7 | 0.00 | 0.00 | 0.00 | 41 | 1006.3 |
| 20260503212028 | 30 | 260 | 9.7 | 11.3 | 0.00 | 0.00 | 0.00 | 42 | 1006.3 |
| 20260503211043 | 30 | 276 | 6.4 | 11.3 | 0.00 | 0.00 | 0.00 | 42 | 1006.3 |
| 20260503210050 | 30 | 278 | 8.0 | 11.3 | 0.00 | 0.00 | 0.00 | 45 | 1006.3 |
| 20260503205020 | 30 | 262 | 9.7 | 12.9 | 0.00 | 0.00 | 0.00 | 44 | 1006.3 |
| 20260503204028 | 29 | 281 | 6.4 | 9.7 | 0.00 | 0.00 | 0.00 | 46 | 1006.3 |
| 20260503203037 | 29 | 255 | 6.4 | 9.7 | 0.00 | 0.00 | 0.00 | 47 | 1006.3 |
| 20260503202028 | 28 | 256 | 8.0 | 12.9 | 0.00 | 0.00 | 0.00 | 47 | 1007.3 |
| 20260503201033 | 28 | 216 | 6.4 | 9.7 | 0.00 | 0.00 | 0.00 | 49 | 1007.3 |
| 20260503200023 | 28 | 248 | 4.8 | 9.7 | 0.00 | 0.00 | 0.00 | 51 | 1007.3 |
| 20260503195031 | 27 | 228 | 9.7 | 14.5 | 0.00 | 0.00 | 0.00 | 50 | 1007.3 |
| 20260503194039 | 27 | 350 | 4.8 | 6.4 | 0.00 | 0.00 | 0.00 | 53 | 1007.3 |
| 20260503193027 | 27 | 275 | 6.4 | 8.0 | 0.00 | 0.00 | 0.00 | 54 | 1007.3 |
| 20260503192028 | 27 | 270 | 6.4 | 9.7 | 0.00 | 0.00 | 0.00 | 53 | 1007.3 |
| 20260503191025 | 26 | 230 | 4.8 | 8.0 | 0.00 | 0.00 | 0.00 | 56 | 1008.1 |
| 20260503190033 | 26 | 251 | 6.4 | 9.7 | 0.00 | 0.00 | 0.00 | 56 | 1008.3 |
| 20260503185023 | 25 | 178 | 4.8 | 8.0 | 0.00 | 0.00 | 0.00 | 58 | 1008.3 |
| 20260503184050 | 26 | 258 | 8.0 | 11.3 | 0.00 | 0.00 | 0.00 | 55 | 1008.3 |
| 20260503183020 | 25 | 250 | 6.4 | 8.0 | 0.00 | 0.00 | 0.00 | 57 | 1008.3 |
| 20260503182029 | 25 | 215 | 4.8 | 9.7 | 0.00 | 0.00 | 0.00 | 59 | 1008.3 |
| 20260503181036 | 24 | 257 | 6.4 | 9.7 | 0.00 | 0.00 | 0.00 | 58 | 1008.3 |
| 20260503180025 | 23 | 249 | 6.4 | 11.3 | 0.00 | 0.00 | 0.00 | 59 | 1008.3 |
| 20260503175053 | 23 | 256 | 8.0 | 11.3 | 0.00 | 0.00 | 0.00 | 60 | 1008.2 |
| 20260503174042 | 23 | 253 | 8.0 | 14.5 | 0.00 | 0.03 | 0.00 | 60 | 1008.3 |
| 20260503173030 | 23 | 237 | 6.4 | 8.0 | 0.00 | 0.03 | 0.00 | 60 | 1008.3 |
| 20260503172021 | 23 | 222 | 4.8 | 8.0 | 0.00 | 0.03 | 0.00 | 60 | 1008.3 |
| 20260503171020 | 23 | 47 | 4.8 | 9.7 | 0.00 | 0.03 | 0.00 | 62 | 1008.3 |
| 20260503131023 | 10 | 0.0 | 0.0 | 0.00 | 0.03 | 0.00 | 99 | 1008.1 |